TimeEST,TemperatureF,Dew PointF,Humidity,Sea Level PressureIn,VisibilityMPH,Wind Direction,Wind SpeedMPH,Gust SpeedMPH,PrecipitationIn,Events,Conditions,WindDirDegrees,DateUTC
12:53 AM,46.0,43.0,89,30.24,8.0,Calm,Calm,-,N/A,,Clear,0,2013-12-20 05:53:00
1:53 AM,46.0,43.0,89,30.23,8.0,Calm,Calm,-,N/A,,Mostly Cloudy,0,2013-12-20 06:53:00
2:53 AM,46.0,43.0,89,30.22,9.0,Calm,Calm,-,N/A,,Mostly Cloudy,0,2013-12-20 07:53:00
3:53 AM,46.0,43.0,89,30.22,9.0,Calm,Calm,-,N/A,,Mostly Cloudy,0,2013-12-20 08:53:00
4:01 AM,46.0,44.1,93,30.22,9.0,Calm,Calm,-,N/A,,Mostly Cloudy,0,2013-12-20 09:01:00
4:21 AM,46.0,43.0,89,30.22,9.0,Calm,Calm,-,N/A,,Mostly Cloudy,0,2013-12-20 09:21:00
4:53 AM,46.9,44.1,90,30.22,10.0,Calm,Calm,-,N/A,,Mostly Cloudy,0,2013-12-20 09:53:00
5:53 AM,45.0,43.0,93,30.23,9.0,Calm,Calm,-,N/A,,Partly Cloudy,0,2013-12-20 10:53:00
6:53 AM,45.0,42.1,90,30.25,7.0,Calm,Calm,-,N/A,,Clear,0,2013-12-20 11:53:00
7:53 AM,44.1,42.1,93,30.26,5.0,Calm,Calm,-,N/A,,Clear,0,2013-12-20 12:53:00
8:53 AM,50.0,46.0,86,30.27,10.0,Calm,Calm,-,N/A,,Clear,0,2013-12-20 13:53:00
9:53 AM,57.9,51.1,78,30.27,10.0,SSW,3.5,-,N/A,,Clear,200,2013-12-20 14:53:00
10:53 AM,64.9,52.0,63,30.26,10.0,SW,3.5,-,N/A,,Clear,230,2013-12-20 15:53:00
11:53 AM,69.1,51.1,53,30.24,10.0,SW,10.4,-,N/A,,Clear,230,2013-12-20 16:53:00
12:53 PM,70.0,50.0,49,30.21,10.0,WSW,13.8,-,N/A,,Clear,250,2013-12-20 17:53:00
1:53 PM,71.1,48.9,45,30.18,10.0,West,10.4,-,N/A,,Clear,260,2013-12-20 18:53:00
2:53 PM,71.1,45.0,39,30.17,10.0,SW,8.1,-,N/A,,Clear,230,2013-12-20 19:53:00
3:53 PM,69.1,46.9,45,30.18,10.0,WSW,8.1,-,N/A,,Clear,250,2013-12-20 20:53:00
4:53 PM,64.9,46.9,52,30.18,10.0,Calm,Calm,-,N/A,,Clear,0,2013-12-20 21:53:00
5:53 PM,60.1,48.9,67,30.19,10.0,Calm,Calm,-,N/A,,Clear,0,2013-12-20 22:53:00
6:53 PM,55.9,48.9,77,30.20,5.0,Calm,Calm,-,N/A,,Haze,0,2013-12-20 23:53:00
7:53 PM,54.0,48.0,80,30.19,10.0,Calm,Calm,-,N/A,,Clear,0,2013-12-21 00:53:00
8:53 PM,51.1,48.0,89,30.19,8.0,Calm,Calm,-,N/A,,Clear,0,2013-12-21 01:53:00
9:53 PM,50.0,46.9,89,30.19,9.0,Calm,Calm,-,N/A,,Clear,0,2013-12-21 02:53:00
10:53 PM,50.0,46.9,89,30.19,8.0,Calm,Calm,-,N/A,,Clear,0,2013-12-21 03:53:00
11:53 PM,50.0,46.0,86,30.18,7.0,Calm,Calm,-,N/A,,Scattered Clouds,0,2013-12-21 04:53:00